Flag for Canada Weather past 2 weeks in Montreal, Quebec, Canada

Now
55 °F

Passing clouds.


Feels Like: 54 °F
Forecast: 48 / 68 °F
Wind: 6 mph from Southwest

Location: Montreal - Pierre Elliot Trudeau International Aiport

Current Time: Sep 23, 2014 at 10:35:53 PM

Latest Report: Sep 23, 2014 at 10:00 PM


Visibility: 15 mi

Pressure: 30.38 "Hg

Humidity: 88%

Dew point: 52 °F

Location of MontrealLocation

Historic Weather in Montreal — Graph

°F

Montreal temperature yesterday

Maximum temperature yesterday: 64 °F (at 12:00 AM)
Minimum temperature yesterday: 46 °F (at 10:00 PM)
Average temperature yesterday: 53 °F

Past Weeks' High & Low Weather Summary

 TemperatureHumidityPressure
High77 °F (Sep 11, 1:04 PM)94% (Sep 11, 6:00 AM)30.43 "Hg (Sep 11, 6:00 AM)
Low36 °F (Sep 19, 4:00 AM)32% (Sep 19, 2:00 PM)29.47 "Hg (Sep 22, 12:00 AM)
Average56 °F72%30.04 "Hg
* Reported Sep 8 9:00 PM — Sep 23 9:00 PM, Montreal, Weather by CustomWeather, © 2014

Note: Actual official high and low records may vary slightly from our data, if they occured in-between our weather recording intervals... More about our weather records

Advertising

Montreal weather history for previous 24 hours

 ConditionsComfort  
Time TempWeatherWind HumidityBarometerVisibility
9:00 PM
Sep 23
55 °FPassing clouds.6 mph88%30.35 "Hg15 mi
8:00 PM59 °FPassing clouds.7 mph77%30.34 "Hg15 mi
7:00 PM59 °FBroken clouds.5 mph77%30.31 "Hg15 mi
6:00 PM61 °FPartly sunny.6 mph72%30.28 "Hg15 mi
5:00 PM63 °FPartly sunny.14 mph68%30.26 "Hg15 mi
4:00 PM61 °FPartly sunny.13 mph68%30.25 "Hg15 mi
3:00 PM61 °FPartly sunny.14 mph68%30.24 "Hg15 mi
2:00 PM59 °FOvercast.16 mph72%30.23 "Hg15 mi
1:00 PM57 °FOvercast.12 mph77%30.22 "Hg15 mi
12:00 PM57 °FScattered clouds.13 mph72%30.21 "Hg15 mi
11:00 AM52 °FPartly sunny.10 mph88%30.22 "Hg15 mi
10:00 AM50 °FOvercast.8 mph88%30.22 "Hg15 mi
9:00 AM48 °FOvercast.9 mph94%30.21 "Hg15 mi
8:00 AM48 °FLow clouds.8 mph87%30.19 "Hg15 mi
7:00 AM46 °FLight rain. Mostly cloudy.9 mph93%30.18 "Hg15 mi
6:00 AM46 °FSprinkles. Mostly cloudy.9 mph87%30.16 "Hg10 mi
5:00 AM46 °FMostly cloudy.6 mph82%30.14 "Hg15 mi
4:00 AM46 °FPassing clouds.8 mph76%30.12 "Hg15 mi
3:00 AM46 °FPassing clouds.9 mph76%30.12 "Hg15 mi
2:00 AM45 °FPassing clouds.10 mph81%30.12 "Hg15 mi
1:00 AM46 °FPassing clouds.12 mph76%30.10 "Hg15 mi
12:00 AM46 °FPassing clouds.7 mph76%30.09 "Hg15 mi
11:00 PM
Sep 22
46 °FPassing clouds.9 mph76%30.07 "Hg15 mi
10:00 PM46 °FClear.10 mph76%30.05 "Hg15 mi
Weather by CustomWeather, © 2014

See weather overviewHow to use our weather pages